Location: Althorst
(53.6379°N, 10.7715°E)
Time: 02:27:00
(UTC+00:00)

Okean 1-7 - Pass Details

Date: 10 December 2019
Orbit: 590 x 619 km, 82.5° (Epoch: 25 January)

Event Time Altitude Azimuth Distance (km) Brightness Sun altitude
Rises 17:39:28 0° 191° (S) 2,856 6.7 -22.6°
Reaches altitude 10° 17:41:40 10° 191° (SSW) 1,961 5.8 -22.9°
Maximum altitude 17:46:01 85° 279° (W) 623 3.0 -23.6°
Enters shadow 17:46:45 62° 2° (N) 698 3.2 -23.7°
